Regional Weather Roundup
Issued by NWS Northern Indiana

Home | Current Version | Previous Version | Text Only | Print | Product List | Glossary On
Versions: 1 2 3 4 5 6 7 8 9 10 11 12 13 14 15 16 17 18 19 20 21 22 23 24 25 26 27 28 29 30 31 32 33 34 35 36 37 38 39 40 41 42 43 44 45 46 47 48 49 50
000
ASUS43 KIWX 212110
RWRIWX

KIWX WEATHER ROUNDUP
NATIONAL WEATHER SERVICE NORTHERN INDIANA
500 PM EDT TUE OCT 21 2014

NOTE: "FAIR" INDICATES FEW OR NO CLOUDS BELOW 12,000 FEET WITH NO
SIGNIFICANT WEATHER AND/OR OBSTRUCTIONS TO VISIBILITY.

* THESE STATIONS ARE NOT UNDER NWS QUALITY CONTROL. THEY ALSO MAY NOT
  REPORT WEATHER SUCH AS PRECIPITATION OR FOG.

INZ001>027-212200-
NORTHERN INDIANA

CITY           SKY/WX    TMP DP  RH WIND       PRES   REMARKS
GARY*          CLOUDY    52  41  66 N14G30    30.18R
VALPARAISO     CLOUDY    50  41  71 N7G18     30.17R
MICHIGAN CITY* CLOUDY    50  36  57 N14G20    30.17S
LAPORTE*       CLOUDY    51  41  69 N13       30.16S
KNOX*          CLOUDY    50  41  71 N15G22    30.15R
SOUTH BEND     CLOUDY    50  40  68 N12       30.16R
ELKHART*       CLOUDY    50  37  62 N9        30.15R
GOSHEN         CLOUDY    50  41  71 N13       30.14R
MONTICELLO*    CLOUDY    54  44  67 N12       30.13R
LOGANSPORT*    CLOUDY    54  41  62 N12       30.13R
ROCHESTER*     CLOUDY    54  43  66 N8        30.13R
WARSAW*        CLOUDY    50  41  71 N8        30.13R
ANGOLA*        CLOUDY    46  30  53 N7        30.13R
FORT WAYNE     CLOUDY    50  41  71 N13       30.12R
HUNTINGTON*    CLOUDY    51  41  68 N7        30.11R
PERU/GRISSOM   CLOUDY    53  45  73 N8        30.11R
MARION*        CLOUDY    53  41  62 N10       30.12R

$$
INZ028>050-212200-
CENTRAL INDIANA

CITY           SKY/WX    TMP DP  RH WIND       PRES   REMARKS
LAFAYETTE      CLOUDY    53  43  68 N9G18     30.13R
KOKOMO*        CLOUDY    54  39  58 N12       30.12R
MUNCIE*        MOSUNNY   56  42  59 NE14G22   30.10R
INDIANAPOLIS   PTSUNNY   55  41  59 NW13      30.10R

$$
MIZ043>046-050>051-056>058-064>065-071>073-077>080-212200-
SOUTHWEST LOWER MICHIGAN

CITY           SKY/WX    TMP DP  RH WIND       PRES   REMARKS
BATTLE CREEK   CLOUDY    49  36  61 N13       30.15R
BENTON HARBOR  CLOUDY    49  39  68 N5        30.16R
COLDWATER*     CLOUDY    48  38  69 N7        30.13R
HILLSDALE*     CLOUDY    47  38  69 N9        30.12R
HOLLAND        MOSUNNY   54  38  54 VRB5      30.17R
GRAND RAPIDS   MOSUNNY   51  37  58 N12       30.16R
KALAMAZOO      CLOUDY    48  39  71 N10       30.15R
STURGIS*       CLOUDY    48  39  71 N7        30.13R
THREE RIVERS*  CLOUDY    49  39  68 N6        30.15R

$$
OHZ001>008-015>018-024>025-212200-
NORTHWEST OHIO

CITY           SKY/WX    TMP DP  RH WIND       PRES   REMARKS
WAUSEON*       CLOUDY    48  37  66 N10G20    30.12R
DEFIANCE       CLOUDY    49  38  65 N8        30.12R
FINDLAY        CLOUDY    48  40  73 N12       30.09R
TOLEDO EXPRESS CLOUDY    47  37  68 N12G21    30.11R
TOLEDO METCALF CLOUDY    48  37  65 N14G23    30.11R
LIMA           CLOUDY    49  40  71 N14       30.09R

$$
AND FOR LAKE MICHIGAN COASTAL AND OPEN LAKE BUOY OBSERVATIONS

STATION/POSITION TEMP    WIND        PRES    VSBY  WAVE
                 AIR SEA DIR/SP/G                  HT/PER
                 (F)     (DEG/KT/KT) (MB)    (MI)  (FT/S)
CALUMET HARBOR    50     340/ 13/ 19 1020.9R
MICHIGAN CITY     50     360/ 20/ 24   N/A
SAINT JOSEPH      50                 1021.7R
SOUTH LAKE BUOY   49 54  350/ 17/ 21 1022.1R         5/ 7

$$
&&



USA.gov is the U.S. government's official web portal to all federal, state and local government web resources and services.